Starlink 1392

operational
NORAD ID: 45677 Int'l Des: 2020-035 Owner: SPXS Country: US Constellation: starlink
LEOCIRCULARSTARLINK_TYPE

Starlink 1392について

説明を読み込み中...

リアルタイム位置

3D地球を読み込み中...

次回通過

高度履歴

Altitude vs Time

uPlot chart will show altitude changes over time

軌道要素

1 45677U 20035W 25305.26471481 .00001907 00000-0 14700-3 0 9999
2 45677 53.0546 283.1426 0001710 88.8623 271.2562 15.06377174299370
Epoch: Nov 1, 2025 • Age: 32 hours

現在のステータス

高度 547.7 km
速度 7.59 km/s
衛星直下点 26.67°N, 170.19°E
打ち上げ日 Jun 4, 2020
運用期間 5.4 years
タイプ internet

技術仕様

分類 Payload
質量 260.00 kg
乾燥質量 248.00 kg
総質量 260.00 kg
長さ 0.20 m
直径 2.80 m
スパン 9.00 m
形状 Box + pan
製造者 SPXS
バスタイプ Starlink
フェーズステータス In Orbit
所有者/国 SPXS/US

大規模コンステレーション

Loading constellations...